Weather in Đenovići

Montenegro     42°26′16″N   18°36′51″E
temp.,
°C
wind,
m/s
gust,
m/s
humid.,
%
clouds,
%
prec.,
mm/h
press.,
hPa
HPBL,
m
16 may, sun
sun1623:00+11n1181100 0.0 1012124
02:00+12nnw128357 0.0 1013241
05:00+11nne018455 0.0 1012234
08:00+13sw118178 0.0 1013347
11:00+14sw337990 0.1 1014588
14:00+14sw227978 0.3 1013506
17:00+15ssw117441 0.0 1012403
20:00+14ese227690 0.0 101274
17 may, mon
mon1723:00+14ese338099 0.0 1013185
02:00+13e457495 0.0 1012184
05:00+14e467164 0.0 1010192
08:00+16se587045 0.0 1010519
11:00+16se686970 0.0 1010668
14:00+16se687355 0.0 1010569
17:00+17se567528 0.0 1010432
20:00+16ese228685 0.0 101036
18 may, tue
tue1823:00+15n338268 0.3 101147
02:00+14nnw23792 0.7 101237
05:00+13nne32690 0.0 101334
08:00+16wnw12625 0.0 1014224
11:00+18w44543 0.0 1015893
14:00+19w44555 0.0 1014930
17:00+18w33553 0.0 1015633
20:00+14ene11692 0.0 101513
19 may, wed
wed1923:00+14ne22600 0.0 101630
02:00+13ne33610 0.0 101536
05:00+13ene33635 0.0 101461
08:00+16se1259100 0.0 1014304
11:00+16s2266100 0.0 1014650
14:00+16wsw2372100 0.3 1015680
17:00+15wnw557046 0.1 1014606
20:00+12nw2380100 0.1 1014158
20 may, thu
thu2023:00+11nnw127743 0.0 1014276
02:00+11ne218210 0.0 1014112
05:00+11ne337434 0.1 1013124
08:00+13ne2358100 0.3 1014396
11:00+15nw1350100 0.0 10141027
14:00+16wsw3451100 0.1 10141428
17:00+16wnw356077 0.7 10141029
20:00+13ne446755 0.8 101572